STARLINK-11266, 60732

Orbit data source: Space-Track

STARLINK-11266, 60732 is a payload satellite owned by SpaceX/Seattle (US) in LEO that was launched on Wed, 28 Aug 2024 UTC via an FALCON 9 launch vehicle from the Air Force Eastern Test Range (AFETR). Payload-class satellites include a variety of spacecraft equipped with specific instruments for various scientific and technological missions. These include communications satellites like Starlink; space stations such as the ISS; scientific satellites like the Hubble; Earth observation satellites from companies like Planet Labs, Umbra, and HawkEye 360; GPS; miniature CubeSats for education and research; and military/defense satellites.

Loading next visibility...
Identifier
60732, 2024-152N
Orbit
LEO
Country
Flag of USUS
Related business
Manufacturer
SpaceX/Seattle
Mission
Operational Commercial Communications
Bus & Motor
STARLINK V2MD, Unknown motor
Mass
960 kg wet, ~910 kg dry
Launch date (UTC)
2024-08-28 (1 year ago)
Launch vehicle
FALCON 9
Launch site
Air Force Eastern Test Range (AFETR)
Object type
Payload
Rocket body
Debris
Shape & HBR
Box + 2 Pan, 14.5 m
Radar Cross Section
36.964 m², Large (>1 m²)

Expand to show TLE details & history
Last TLE update: 23 hours ago

TLE from 23 hours ago
0 STARLINK-11266
1 60732U 24152N   25259.38621433 -.00002565  00000-0 -16338-4 0  9990
2 60732  53.1607 255.1360 0000608  56.1380 303.9696 15.69691568 61460
Epoch: 2025-09-16T09:16Z
TLE epoch observation values (Epoch: 2025-09-16T09:16:08.918Z)
Latitude
0.00002°
Longitude
120.5216°
Altitude
360.466 km
Speed
7.694 km/s
True Right ascension
17h 00m 32s
True Declination
0° 00' 00"
Sunlit
Object was in daylight at epoch
Visualization orbit readout
Latitude
Unknown
Longitude
Unknown
Altitude
Unknown
Speed
Unknown
Apparent Right ascension
Unknown
Apparent Declination
Unknown
Sunlit
N/A
Visualization observer readout
Local Sidereal Time
01:07:34
Azimuth
Unknown
Elevation
Unknown
Doppler factor
Unknown
Orbital elements
Apogee altitude
360.45 km
Perigee altitude
359.63 km
Semi-major axis
6,738.177 km
Eccentricity
0.00006
Inclination
53.1607°
RAAN
255.136°
Arg. of periapsis
56.138°
True anomaly
303.96382°
Mean anomaly
303.9696°
Eccentric anomaly
303.96671°
Mean motion
3.924 °/min
Orbital period
91.74 mins
BSTAR
-0.000016338
Loading maneuver chart data...
Computing Atmospheric mass density...
Loading historical data...
Loading historical data...
Loading historical data...
Loading historical data...
Loading historical data...
Loading historical data...
Loading historical data...

Documentation

Showing up to 5 results
|